Flag for U.S.A. Weather past 2 weeks in Omaha, Nebraska, U.S.A.

Now
64 °F

Overcast.


Feels Like: 64 °F
Forecast: 63 / 75 °F
Wind: No wind

Location: Millard Airport

Current Time: Oct 1, 2014 at 9:32:59 AM

Latest Report: Oct 1, 2014 at 9:15 AM


Visibility: 10 mi

Pressure: 29.76 "Hg

Humidity: 90%

Dew point: 62 °F

Location of OmahaLocation

Historic Weather in Omaha — Graph

°F

Omaha temperature yesterday

Maximum temperature yesterday: 72 °F (at 12:55 PM)
Minimum temperature yesterday: 62 °F (at 12:55 AM)
Average temperature yesterday: 66 °F

Past Weeks' High & Low Weather Summary

 TemperatureHumidityPressure
High89 °F (Sep 19, 4:15 PM)97% (Sep 22, 5:55 AM)30.32 "Hg (Sep 22, 5:55 AM)
Low46 °F (Sep 16, 8:15 AM)34% (Sep 26, 3:55 PM)29.69 "Hg (Oct 1, 4:15 AM)
Average67 °F75%30.05 "Hg
* Reported Sep 16 8:15 AM — Oct 1 8:15 AM, Omaha, Weather by CustomWeather, © 2014

Note: Actual official high and low records may vary slightly from our data, if they occured in-between our weather recording intervals... More about our weather records

Advertising

Omaha weather history for previous 24 hours

 ConditionsComfort  
Time TempWeatherWind HumidityBarometerVisibility
8:15 AM
Oct 1
62 °FPassing clouds.No wind95%29.73 "Hg10 mi
7:55 AM62 °FLight rain. Overcast.No wind95%29.73 "Hg10 mi
7:35 AM62 °FLight rain. Overcast.No wind93%29.72 "Hg7 mi
7:15 AM62 °FRain. Mostly cloudy.6 mph93%29.73 "Hg10 mi
6:55 AM62 °FDrizzle. Overcast.7 mph93%29.72 "Hg10 mi
6:15 AM62 °FRain. Mostly cloudy.No wind95%29.72 "Hg7 mi
5:55 AM62 °FHeavy rain. Overcast.5 mph93%29.72 "Hg5 mi
5:30 AM62 °FRain. Overcast.6 mph94%29.72 "Hg5 mi
5:15 AM62 °FRain. Overcast.5 mph94%29.72 "Hg2 mi
4:55 AM63 °FHeavy rain. Overcast.No wind92%29.72 "Hg1 mi
4:35 AM63 °FThundershowers. Overcast.5 mph92%29.70 "Hg10 mi
4:15 AM63 °FLight rain. Mostly cloudy.3 mph91%29.69 "Hg10 mi
3:55 AM63 °FLight rain. Partly cloudy.5 mph92%29.70 "Hg10 mi
3:35 AM63 °FLight rain. Overcast.10 mph94%29.71 "Hg7 mi
3:15 AM63 °FLight rain. Mostly cloudy.6 mph94%29.73 "Hg10 mi
2:55 AM63 °FLight rain. Overcast.7 mph94%29.72 "Hg7 mi
2:35 AM64 °FThundershowers. Overcast.10 mph94%29.73 "Hg7 mi
2:15 AM65 °FThunderstorms. Overcast.7 mph95%29.76 "Hg7 mi
1:55 AM65 °FLight rain. Overcast.5 mph94%29.77 "Hg10 mi
1:30 AM65 °FRain. Overcast.7 mph94%29.77 "Hg5 mi
1:10 AM65 °FRain. Mostly cloudy.5 mph94%29.76 "Hg10 mi
12:50 AM65 °FLight rain. Overcast.13 mph94%29.76 "Hg7 mi
12:35 AM66 °FThundershowers. Overcast.15 mph93%29.76 "Hg5 mi
12:15 AM66 °FThunderstorms. Mostly cloudy.9 mph93%29.76 "Hg7 mi
11:55 PM
Sep 30
66 °FThundershowers. Mostly cloudy.14 mph93%29.76 "Hg7 mi
11:35 PM66 °FThundershowers. Overcast.12 mph93%29.75 "Hg10 mi
11:15 PM66 °FLight rain. Overcast.13 mph93%29.75 "Hg7 mi
10:55 PM66 °FRain. Overcast.9 mph93%29.78 "Hg5 mi
10:35 PM66 °FThunderstorms. Overcast.No wind93%29.79 "Hg10 mi
10:15 PM66 °FThundershowers. Passing clouds.9 mph93%29.79 "Hg10 mi
9:55 PM65 °FLight rain. Overcast.5 mph95%29.77 "Hg5 mi
9:35 PM66 °FThundershowers. Partly cloudy.No wind92%29.79 "Hg7 mi
9:15 PM65 °FPassing clouds.3 mph94%29.77 "Hg10 mi
8:55 PM65 °FThundershowers. Passing clouds.3 mph94%29.77 "Hg10 mi
8:35 PM65 °FThundershowers. Partly cloudy.6 mph93%29.77 "Hg10 mi
8:15 PM65 °FLight rain. Overcast.6 mph93%29.78 "Hg7 mi
7:55 PM65 °FThunderstorms. Cloudy.9 mph92%29.77 "Hg7 mi
7:40 PM65 °FHeavy rain. Cloudy.10 mph93%29.77 "Hg4 mi
7:15 PM65 °FThunderstorms. Cloudy.16 mph92%29.76 "Hg2 mi
6:55 PM66 °FLight rain. Cloudy.3 mph92%29.79 "Hg10 mi
6:35 PM66 °FRain. Cloudy.10 mph93%29.77 "Hg7 mi
6:15 PM66 °FRain. Cloudy.6 mph93%29.79 "Hg4 mi
5:55 PM66 °FRain. Cloudy.8 mph93%29.77 "Hg7 mi
5:35 PM65 °FThunderstorms. Cloudy.6 mph94%29.77 "Hg4 mi
5:15 PM66 °FHeavy rain. Mostly cloudy.No wind94%29.81 "Hg1 mi
4:55 PM65 °FRain. Mostly cloudy.No wind95%29.78 "Hg2 mi
4:35 PM66 °FThundershowers. Cloudy.No wind94%29.81 "Hg1 mi
4:15 PM65 °FThundershowers. Cloudy.No wind93%29.81 "Hg2 mi
3:55 PM66 °FThundershowers. Mostly cloudy.No wind93%29.80 "Hg5 mi
3:35 PM66 °FRain. Mostly cloudy.3 mph91%29.80 "Hg2 mi
3:15 PM66 °FHeavy rain. Cloudy.No wind93%29.82 "Hg4 mi
2:55 PM66 °FHeavy rain. Cloudy.3 mph92%29.82 "Hg3 mi
2:30 PM67 °FRain. Cloudy.No wind90%29.82 "Hg5 mi
2:15 PM67 °FRain. Cloudy.6 mph88%29.83 "Hg7 mi
1:55 PM69 °FLight rain. Mostly cloudy.3 mph79%29.84 "Hg10 mi
1:35 PM71 °FCloudy.5 mph72%29.83 "Hg10 mi
1:15 PM72 °FCloudy.5 mph68%29.83 "Hg10 mi
12:55 PM72 °FCloudy.5 mph68%29.83 "Hg10 mi
12:35 PM72 °FScattered clouds.3 mph69%29.84 "Hg10 mi
12:15 PM71 °FScattered clouds.5 mph71%29.85 "Hg10 mi
11:55 AM71 °FMore clouds than sun.3 mph70%29.86 "Hg10 mi
11:35 AM71 °FMostly cloudy.7 mph71%29.87 "Hg10 mi
11:15 AM69 °FMostly cloudy.3 mph77%29.87 "Hg10 mi
10:55 AM67 °FOvercast.No wind79%29.88 "Hg10 mi
10:35 AM67 °FMostly cloudy.5 mph79%29.87 "Hg10 mi
10:15 AM66 °FOvercast.5 mph79%29.87 "Hg10 mi
9:55 AM66 °FMostly cloudy.6 mph78%29.87 "Hg10 mi
9:35 AM66 °FMostly cloudy.7 mph79%29.87 "Hg10 mi
9:15 AM66 °FMostly cloudy.6 mph79%29.87 "Hg10 mi
Weather by CustomWeather, © 2014

See weather overviewHow to use our weather pages